Find Starlink 2582

NORAD ID: 48460 Int'l Des: 2021-040 Owner: SPXS Country: US Constellation: starlink operational
LEOCIRCULAR

Live Position

Loading 3D Globe...

About Starlink 2582

Description loading...

Upcoming Passes

Passes for default location (London). Set your location on the main map for personalized predictions.

Altitude History

Loading altitude history...

Two-Line Element Set

1 48460U 21040AJ 26104.58096601 .00091674 00000-0 93728-3 0 9996
2 48460 53.0533 315.7396 0003606 193.2645 166.8275 15.64291288273476
Epoch: Apr 14, 2026 • Age: 8 hours

Current Status

Altitude 382.4 km
Velocity 7.69 km/s
Sub-Earth Point 51.91°N, 145.62°W
Launch Date May 9, 2021
Age 4.9 years
Type internet

Technical Details

Classification Payload
Mass 260.00 kg
Dry Mass 248.00 kg
Total Mass 260.00 kg
Length 0.20 m
Diameter 2.80 m
Span 9.00 m
Shape Box + pan
Manufacturer SPXS
Bus Type Starlink
Phase Status In Orbit
Owner/State SPXS/US

Most Searched